Location: Unnamed
(54.5186°N, 36.2255°E)
Time: 17:55:28
(UTC+03:00)

ISS - Pass Details

Date: 26 February 2026
Orbit: 416 x 427 km, 51.6° (Epoch: 5 March)

Event Time Altitude Azimuth Distance (km) Brightness Sun altitude
Exits shadow 05:34:04 45° 209° (SSW) 579 -3.4 -17.8°
Maximum altitude 05:34:23 47° 189° (S) 562 -3.3 -17.8°
Drops below altitude 10° 05:37:37 10° 114° (ESE) 1,494 -0.1 -17.3°
Sets 05:39:45 0° 109° (ESE) 2,355 1.2 -17.0°
